This is the latest recevied weather packets stored in our database for station/object N5COP-13. If no packets are shown the sender has not sent any weather packets the latest 10 day(s).
| Time | Temp. | Humidity | Pressure | Rain* | Wind** | Luminosity | Snow |
|---|---|---|---|---|---|---|---|
| 1777898887 | 12.78° C | 68% | 1010.1 hPa | 0 mm | - | 56 W/m² | - |
| 1777898583 | 12.78° C | 68% | 1010.1 hPa | 0 mm | - | 47 W/m² | - |
| 1777898281 | 12.22° C | 69% | 1009.7 hPa | 0 mm | - | 38 W/m² | - |
| 1777897978 | 12.22° C | 68% | 1009.9 hPa | 0 mm | - | 30 W/m² | - |
| 1777897674 | 12.22° C | 68% | 1009.8 hPa | 0 mm | - | 28 W/m² | - |
| 1777897370 | 12.22° C | 68% | 1009.6 hPa | 0 mm | - | 20 W/m² | - |
| 1777897066 | 12.78° C | 67% | 1009.6 hPa | 0 mm | - | 14 W/m² | - |
| 1777896763 | 12.78° C | 67% | 1010.1 hPa | 0 mm | - | 11 W/m² | - |
| 1777896460 | 12.78° C | 67% | 1009.8 hPa | 0 mm | - | 8 W/m² | - |
| 1777896158 | 12.78° C | 67% | 1009.6 hPa | 0 mm | - | 5 W/m² | - |
| 1777895856 | 12.78° C | 66% | 1009.8 hPa | 0 mm | - | 3 W/m² | - |
| 1777895553 | 12.78° C | 65% | 1009.7 hPa | 0 mm | - | 2 W/m² | - |
| 1777895250 | 13.33° C | 65% | 1009.5 hPa | 0 mm | - | 1 W/m² | - |
| 1777894947 | 13.33° C | 65% | 1009.8 hPa | 0 mm | - | 0 W/m² | - |
| 1777894645 | 13.33° C | 64% | 1009.9 hPa | 0 mm | - | 0 W/m² | - |
| 1777894342 | 13.33° C | 64% | 1009.8 hPa | 0 mm | - | 0 W/m² | - |
| 1777894039 | 13.33° C | 64% | 1009.6 hPa | 0 mm | - | 0 W/m² | - |
| 1777893735 | 13.33° C | 65% | 1009.9 hPa | 0 mm | - | 0 W/m² | - |
| 1777893432 | 13.33° C | 66% | 1009.8 hPa | 0 mm | - | 0 W/m² | - |
| 1777893129 | 12.78° C | 67% | 1009.7 hPa | 0 mm | - | 0 W/m² | - |
| 1777892825 | 12.78° C | 67% | 1009.9 hPa | 0 mm | - | 0 W/m² | - |
| 1777892521 | 12.22° C | 67% | 1009.8 hPa | 0 mm | - | 0 W/m² | - |
| 1777892217 | 12.22° C | 68% | 1009.9 hPa | 0 mm | - | 0 W/m² | - |
| 1777891914 | 11.67° C | 68% | 1010.1 hPa | 0 mm | - | 0 W/m² | - |
| 1777891611 | 11.67° C | 68% | 1010.2 hPa | 0 mm | - | 0 W/m² | - |
* Rain latest hour (hover to see other rain measurements)
** Current wind speed in m/s (hover to see current wind gust speed)